Home   Weather   Glengarriff   Past weeks
Flag for Ireland

Past Weather in Glengarriff, Ireland — June 2019

Currently: 45 °F. Partly cloudy. (Weather station: Cork Airport, Ireland). See more current weather

June 2019 Weather in Glengarriff — Graph

°F

High & Low Weather Summary for June 2019

 TemperatureHumidityPressure
High73 °F (Jun 27, 4:30 pm)100% (Jun 1, 12:00 am)30.36 "Hg (Jun 1, 12:00 am)
Low43 °F (Jun 6, 3:30 am)45% (Jun 8, 4:30 pm)29.56 "Hg (Jun 4, 10:00 am)
Average54 °F83%29.92 "Hg
* Reported Jun 1 12:00 am — Jun 30 11:30 pm, Glengarriff. Weather by CustomWeather, © 2022

Note: Actual official high and low records may vary slightly from our data, if they occured in-between our weather recording intervals... More about our weather records

Glengarriff Weather History for June 1, 2019

Scroll right to see more
 ConditionsComfort  
Time TempWeatherWind HumidityBarometerVisibility
12:00 am
Sat, Jun 1
48 °FPartly cloudy.6 mph100%30.09 "HgN/A
12:30 am50 °FFog.5 mph94%30.09 "Hg1 mi
1:00 am48 °FPassing clouds.5 mph100%30.09 "HgN/A
1:30 am50 °FFog.5 mph94%30.09 "Hg1 mi
2:00 am50 °FFog.2 mph100%30.07 "Hg1 mi
2:30 am50 °FFog.5 mph100%30.09 "Hg1 mi
3:00 am50 °FFog.2 mph100%30.09 "Hg1 mi
3:30 am52 °FFog.1 mph94%30.07 "Hg3 mi
4:00 am52 °FPassing clouds.2 mph100%30.07 "HgN/A
4:30 am52 °FFog.1 mph100%30.07 "Hg1 mi
5:00 am52 °FFog.1 mph100%30.04 "Hg1 mi
5:30 am52 °FFog.No wind100%30.04 "Hg1 mi
6:00 am52 °FDrizzle. Partly sunny.1 mph100%30.04 "Hg1 mi
6:30 am52 °FFog.No wind100%30.04 "Hg1 mi
7:00 am52 °FDrizzle. Fog.5 mph100%30.04 "Hg0 mi
7:30 am52 °FLight rain. Fog.5 mph100%30.04 "Hg0 mi
8:00 am52 °FLight rain. Fog.6 mph100%30.04 "Hg1 mi
8:30 am54 °FLight rain. Fog.7 mph100%30.04 "Hg1 mi
9:00 am54 °FLight rain. Fog.7 mph100%30.04 "Hg0 mi
9:30 am54 °FLight rain. Fog.8 mph100%30.04 "Hg0 mi
10:00 am55 °FLight rain. Fog.10 mph100%30.01 "Hg1 mi
10:30 am55 °FPartly sunny.10 mph94%30.04 "HgN/A
11:00 am55 °FPartly sunny.9 mph100%30.01 "HgN/A
11:30 am55 °FBroken clouds.10 mph94%30.01 "HgN/A
12:00 pm57 °FPartly sunny.10 mph94%30.01 "HgN/A
12:30 pm57 °FBroken clouds.10 mph88%30.01 "HgN/A
1:00 pm59 °FPartly sunny.10 mph88%30.01 "HgN/A
1:30 pm59 °FBroken clouds.12 mph88%29.98 "HgN/A
2:00 pm57 °FPartly sunny.10 mph94%29.98 "Hg4 mi
2:30 pm57 °FFog.10 mph100%29.98 "Hg1 mi
3:00 pm57 °FFog.12 mph100%29.95 "Hg1 mi
3:30 pm57 °FFog.12 mph100%29.92 "Hg1 mi
4:00 pm57 °FFog.10 mph100%29.92 "Hg1 mi
4:30 pm57 °FFog.8 mph100%29.92 "Hg1 mi
5:00 pm57 °FFog.9 mph100%29.89 "Hg1 mi
5:30 pm57 °FFog.10 mph100%29.89 "Hg0 mi
6:00 pm57 °FFog.10 mph100%29.86 "Hg0 mi
6:30 pm57 °FFog.10 mph100%29.86 "Hg0 mi
7:00 pm57 °FFog.10 mph94%29.83 "Hg0 mi
7:30 pm57 °FDrizzle. Fog.9 mph94%29.83 "Hg0 mi
8:00 pm55 °FLight rain. Fog.9 mph100%29.83 "Hg0 mi
8:30 pm55 °FLight rain. Partly sunny.9 mph100%29.83 "Hg1 mi
9:00 pm55 °FLight rain. Partly sunny.9 mph100%29.80 "Hg4 mi
9:30 pm55 °FLight rain. Partly sunny.8 mph94%29.80 "Hg4 mi
10:00 pm55 °FLight rain. Partly cloudy.12 mph100%29.77 "Hg1 mi
10:30 pm55 °FLight rain. Partly cloudy.14 mph94%29.77 "Hg1 mi
11:00 pm55 °FRain. Passing clouds.13 mph94%29.77 "Hg1 mi
11:30 pm55 °FLight rain. Partly cloudy.12 mph100%29.77 "Hg1 mi
Weather by CustomWeather, © 2022

See weather overview